This is the latest recevied weather packets stored in our database for station/object W3AJR. If no packets are shown the sender has not sent any weather packets the latest 10 day(s).
| Time | Temp. | Humidity | Pressure | Rain* | Wind** | Luminosity | Snow |
|---|---|---|---|---|---|---|---|
| 1777939057 | 20° C | 58% | 1009.9 hPa | 0 mm | - | 5 W/m² | - |
| 1777938753 | 20.56° C | 55% | 1009.6 hPa | 0 mm | - | 6 W/m² | - |
| 1777938451 | 21.11° C | 53% | 1009.7 hPa | 0 mm | - | 8 W/m² | - |
| 1777938148 | 21.67° C | 50% | 1009.9 hPa | 0 mm | - | 10 W/m² | - |
| 1777937844 | 22.22° C | 47% | 1009.9 hPa | 0 mm | - | 10 W/m² | - |
| 1777937540 | 22.22° C | 46% | 1010 hPa | 0 mm | - | 8 W/m² | - |
| 1777937237 | 22.22° C | 46% | 1009.7 hPa | 0 mm | - | 6 W/m² | - |
| 1777936934 | 22.22° C | 46% | 1009.9 hPa | 0 mm | - | 7 W/m² | - |
| 1777936631 | 22.78° C | 45% | 1009.6 hPa | 0 mm | - | 16 W/m² | - |
| 1777936327 | 22.78° C | 44% | 1009.8 hPa | 0 mm | - | 23 W/m² | - |
| 1777936023 | 22.78° C | 43% | 1009.9 hPa | 0 mm | - | 19 W/m² | - |
| 1777935722 | 23.33° C | 42% | 1009.7 hPa | 0 mm | - | 14 W/m² | - |
| 1777935421 | 23.33° C | 42% | 1009.5 hPa | 0 mm | - | 13 W/m² | - |
| 1777935116 | 23.33° C | 42% | 1009.4 hPa | 0 mm | - | 29 W/m² | - |
| 1777934813 | 23.33° C | 41% | 1009.4 hPa | 0 mm | - | 58 W/m² | - |
| 1777934510 | 23.33° C | 41% | 1009.5 hPa | 0 mm | - | 71 W/m² | - |
| 1777934207 | 23.33° C | 42% | 1009.5 hPa | 0 mm | - | 52 W/m² | - |
| 1777933902 | 23.33° C | 41% | 1009.6 hPa | 0 mm | - | 69 W/m² | - |
| 1777933600 | 23.33° C | 41% | 1009.6 hPa | 0 mm | - | 74 W/m² | - |
| 1777933297 | 23.33° C | 41% | 1009.5 hPa | 0 mm | - | 99 W/m² | - |
| 1777932994 | 23.33° C | 41% | 1009.6 hPa | 0 mm | - | 66 W/m² | - |
| 1777932691 | 23.89° C | 41% | 1009.5 hPa | 0 mm | - | 67 W/m² | - |
| 1777932387 | 23.33° C | 41% | 1009.2 hPa | 0 mm | - | 72 W/m² | - |
| 1777932085 | 23.33° C | 41% | 1009.5 hPa | 0 mm | - | 67 W/m² | - |
| 1777931781 | 23.89° C | 41% | 1009.5 hPa | 0 mm | - | 58 W/m² | - |
* Rain latest hour (hover to see other rain measurements)
** Current wind speed in m/s (hover to see current wind gust speed)